Weather History for Findlay, OH

Change the Weather History Date:

Saturday, January 19, 2013

  Actual Average Record
Temperature  
Mean Temperature 44 °F -  
Max Temperature 50 °F 30 °F 58 °F (1949)
Min Temperature 37 °F 15 °F -11 °F (1985)
Degree Days  
Heating Degree Days 22    
Moisture  
Dew Point 27 °F    
Average Humidity 53    
Maximum Humidity 65    
Minimum Humidity 44    
Precipitation  
Precipitation 0.00 in - - ()
Sea Level Pressure  
Sea Level Pressure 29.93 in    
Wind  
Wind Speed 20 mph (SW)    
Max Wind Speed 23 mph    
Max Gust Speed 34 mph    
Visibility 10 miles    
Events      
Averages and records for this station are not official NWS values.
T = Trace of Precipitation, MM = Missing Value Source: NWS Daily Summary

Daily Weather History Graph

Daily Weather History Graph

Search for Another Location

Airport:

Trip Planner

Search our weather history database for the weather conditions in past years. The results will help you decide how hot, cold, wet, or windy it might be!

Date:

Astronomy

Jan. 19, 2013 Rise Set
Actual Time 7:55 AM EST 5:36 PM EST
Civil Twilight 7:25 AM EST 6:06 PM EST
Nautical Twilight 6:51 AM EST 6:39 PM EST
Astronomical Twilight 6:18 AM EST 7:12 PM EST
Moon 12:02 PM EST (1/19) 1:27 AM EST (1/19)
Length of Visible Light 10h 40m
Length of Day
9h 40m
First Quarter, 57% of the Moon is Illuminated
Jan 19
First Quarter
Jan 26
Full
Feb 3
Last Quarter
Feb 10
New
Feb 17
First Quarter

Hourly Weather History & Observations

Time (EST) Temp. Windchill Dew Point Humidity Pressure Visibility Wind Dir Wind Speed Gust Speed Precip Events Conditions
12:53 AM 37.9 °F 27.6 °F 23.0 °F 55% 30.07 in 10.0 mi SW 20.7 mph 34.5 mph N/A   Clear
1:53 AM 37.0 °F 26.7 °F 23.0 °F 57% 30.06 in 10.0 mi SSW 19.6 mph 32.2 mph N/A   Clear
2:53 AM 37.0 °F 27.4 °F 23.0 °F 57% 30.06 in 10.0 mi SW 17.3 mph 31.1 mph N/A   Clear
3:53 AM 37.9 °F 27.6 °F 23.0 °F 55% 30.05 in 10.0 mi SW 20.7 mph 31.1 mph N/A   Clear
4:53 AM 37.0 °F 26.7 °F 23.0 °F 57% 30.04 in 10.0 mi SSW 19.6 mph 24.2 mph N/A   Clear
5:53 AM 39.0 °F 29.3 °F 21.9 °F 50% 30.03 in 10.0 mi SW 19.6 mph 29.9 mph N/A   Clear
6:53 AM 37.9 °F 27.9 °F 23.0 °F 55% 30.04 in 10.0 mi SW 19.6 mph 27.6 mph N/A   Clear
7:53 AM 37.0 °F 27.7 °F 24.1 °F 59% 30.04 in 10.0 mi SSW 16.1 mph - N/A   Clear
8:53 AM 39.0 °F 29.0 °F 24.1 °F 55% 30.04 in 10.0 mi SSW 20.7 mph 26.5 mph N/A   Clear
9:53 AM 42.1 °F 33.3 °F 25.0 °F 51% 30.04 in 10.0 mi SSW 19.6 mph 27.6 mph N/A   Clear
10:53 AM 44.1 °F 35.7 °F 26.1 °F 49% 30.03 in 10.0 mi SSW 20.7 mph 26.5 mph N/A   Clear
11:53 AM 46.9 °F - 28.0 °F 48% 29.98 in 10.0 mi SW 20.7 mph 34.5 mph N/A   Clear
12:53 PM 48.0 °F - 28.0 °F 46% 29.93 in 10.0 mi SW 23.0 mph 31.1 mph N/A   Clear
1:53 PM 50.0 °F - 28.9 °F 44% 29.89 in 10.0 mi SW 23.0 mph 32.2 mph N/A   Clear
2:53 PM 50.0 °F - 30.0 °F 46% 29.86 in 10.0 mi SW 23.0 mph 34.5 mph N/A   Clear
3:53 PM 50.0 °F - 30.0 °F 46% 29.83 in 10.0 mi SSW 23.0 mph 31.1 mph N/A   Clear
4:53 PM 48.0 °F - 30.0 °F 50% 29.82 in 10.0 mi SW 16.1 mph - N/A   Clear
5:53 PM 46.9 °F - 30.0 °F 52% 29.81 in 10.0 mi SW 18.4 mph - N/A   Clear
6:53 PM 46.0 °F 39.0 °F 30.0 °F 54% 29.81 in 10.0 mi SSW 17.3 mph - N/A   Partly Cloudy
7:53 PM 45.0 °F 38.2 °F 28.9 °F 53% 29.80 in 10.0 mi SW 15.0 mph - N/A   Clear
8:53 PM 44.1 °F 35.9 °F 28.9 °F 55% 29.78 in 10.0 mi SW 19.6 mph 26.5 mph N/A   Clear
9:53 PM 44.1 °F 35.2 °F 30.0 °F 58% 29.76 in 10.0 mi SW 23.0 mph 29.9 mph N/A   Clear
10:53 PM 44.1 °F 35.7 °F 32.0 °F 63% 29.74 in 10.0 mi SW 20.7 mph 31.1 mph N/A   Clear
11:53 PM 44.1 °F 35.4 °F 33.1 °F 65% 29.73 in 10.0 mi WSW 21.9 mph 29.9 mph N/A   Clear